User: anonymous   Login
Location: Unspecified
(0.0000°N, 0.0000°E)
Time: 00:46:57
(UTC+00:00)
Language:

Transit 2A - Orbit

View from above orbital plane
View from above orbital plane
View from above satellite
View from above satellite

Ground track
Ground track

The orbit data is extracted from the following two-line orbital elements,

1    45U 60007A   19200.21934196 -.00000090  00000-0  45714-5 0  9995
2    45  66.6928 181.6540 0258502 200.4999 158.5581 14.33643920 74793
Epoch (UTC): 19 July 2019 05:15:51
Eccentricity: 0.0258502
inclination: 66.6928°
perigee height: 594 km
apogee height: 964 km
right ascension of ascending node: 181.6540°
argument of perigee: 200.4999°
revolutions per day: 14.33643920
mean anomaly at epoch: 158.5581°
orbit number at epoch: 7479

The dashed part of the orbit path shows where the satellite is in the earth's shadow,  

DLR